Regional Weather Roundup
Issued by NWS

Home | Current Version | Previous Version | Text Only | Print | Product List | Glossary On
Versions: 1 2 3 4 5 6 7 8 9 10 11 12 13 14 15 16 17 18 19 20 21 22 23 24 25 26 27 28 29 30 31 32 33 34 35 36 37 38 39 40 41 42 43 44 45 46 47 48 49 50
000
ASHW40 PHFO 230143
RWRHI

WEATHER ROUNDUP FOR HAWAII
NATIONAL WEATHER SERVICE HONOLULU HI
300 PM HST MON MAY 22 2017

THIS IS AN AUTOMATED REPORT THAT HAS NOT BEEN QUALITY CONTROLLED.

NOTE..."FAIR" INDICATES FEW OR NO CLOUDS BELOW 12,000 FEET WITH NO
SIGNIFICANT WEATHER AND/OR OBSTRUCTIONS TO VISIBILITY.

* - THESE SITES REPORT LIMITED FIELDS

HIZ001>004-230200-
KAUAI-NIIHAU-

CITY           SKY/WX    TMP DP  RH WIND       PRES   REMARKS
LIHUE APT      MOSUNNY   83  67  58 NE18      30.07F
PORT ALLEN*      N/A     84 N/A N/A NE21G30     N/A
POIPU*           N/A     84 N/A N/A NE10G21     N/A
PRINCEVILLE*     N/A     79 N/A N/A E13G20      N/A
KOKOLE POINT*  NOT AVBL
MOLOAA DAIRY*    N/A     82  66  57 E6G15       N/A
WAIMEA HTS*      N/A     88  59  37 E10G29      N/A
PUU OPAE*      NOT AVBL
PUU LUA*       NOT AVBL
MAKAHA RIDGE*    N/A     81  63  54 SW3G9       N/A
$$

HIZ005>011-230200-
OAHU-

CITY           SKY/WX    TMP DP  RH WIND       PRES   REMARKS
HONOLULU       MOSUNNY   85  60  42 NE15G25   30.01F
KALAELOA         N/A     86  61  42 NE14G26   30.02F
KANEOHE MCB    NOT AVBL
WHEELER FIELD  FAIR      79  64  60 NE14      30.03F
BELLOWS*         N/A    N/A N/A N/A NE21        N/A
KAHUKU*          N/A    N/A N/A N/A NE9G17      N/A
WHEELER*         N/A    N/A N/A N/A NE10G16     N/A
WAIANAE HARBOR   N/A    N/A N/A N/A NE9G20      N/A
DILLINGHAM*      N/A     79  59  50 SW9G20      N/A
KAHUKU TRN*      N/A     81  66  61 W12G26      N/A
KAWAILOA*        N/A     75  64  69 E12G25      N/A
KII*             N/A     81  68  65 E20G26      N/A
MAKUA RANGE*     N/A     72  52  49 SW13G22     N/A
OAHU FOREST NW   N/A     72  61  68 E17G29      N/A
SCHOFIELD BRK*   N/A     79  64  61 MISG        N/A
SCHOFIELD S*   NOT AVBL
WAIANAE VLY*     N/A     84  64  51 SE9G18      N/A
KUAOKALA*        N/A     77  64  65 NE15G30     N/A
HONOULIUULI*   NOT AVBL
MOKUOLOE IS*   NOT AVBL
PALEHUA*         N/A     72  59  64 NE8G20      N/A
WAIAWA PHB*    NOT AVBL
$$

HIZ012>013-230200-
MOLOKAI-

CITY           SKY/WX    TMP DP  RH WIND       PRES   REMARKS
MOLOKAI AIRPT  MOSUNNY   80  67  64 NE16G25   30.04F
KALAUPAPA      NOT AVBL
MAKAPULAPAI*     N/A     81  68  65 E20G29      N/A
MOLOKAI 1*       N/A     72  55  56 E6G18       N/A
PUU ALII*        N/A     63  57  82 N3G12       N/A
$$

HIZ016-230200-
KAHOOLAWE-

CITY           SKY/WX    TMP DP  RH WIND       PRES   REMARKS
KAHOOLAWE*     NOT AVBL
HAKIOAWA*        N/A     77  66  68 MISG      30.43S
HONOKANAIA*      N/A     82  64  54 NE21G37   29.95F
KANELOA*         N/A     79  66  65 E25G38    30.07F
KEALIALALO*    NOT AVBL
LUA MAKIKA*    NOT AVBL
$$

HIZ014>015-230200-
LANAI-

CITY           SKY/WX    TMP DP  RH WIND       PRES   REMARKS
LANAI CITY     FAIR      78  64  61 NE26G33   30.04F
LANAI 1*         N/A     75  66  73 NE23G35     N/A
$$

HIZ017>028-230200-
MAUI-

CITY           SKY/WX    TMP DP  RH WIND       PRES   REMARKS
KAHULUI        MOSUNNY   84  63  49 NE23G32   30.01F
KAPALUA-W MAUI MOSUNNY   82  63  51 NE15G29   30.03
HANA AIRPORT   MOSUNNY   82  64  54 E8        30.07F
HANA*            N/A     81 N/A N/A NE10        N/A
HALEAKALA SUMM   N/A     50  18  27 E20         N/A
MAALAEA BAY*     N/A     82 N/A N/A N23G37      N/A
HALEAKALA*     NOT AVBL
KAUPO GAP*     NOT AVBL
KULA 1*          N/A     58  57  97 W3G9        N/A
$$

HIZ023>026-230200-
BIG ISLAND OF HAWAII COAST AND LOWER SLOPES-

CITY           SKY/WX    TMP DP  RH WIND       PRES   REMARKS
KAILUA KONA    CLOUDY    81  65  58 S15       29.96F
HILO           CLOUDY    73  68  83 NW9       30.03S
HONOKAA*         N/A     77 N/A N/A VRB1        N/A
KAWAIHAE MWT*    N/A     84 N/A N/A W12         N/A
KAWAIHAE*        N/A     81 N/A N/A SW10      29.96S
SOUTH POINT*     N/A     72 N/A N/A N14G22      N/A
UPOLU AIRPORT* NOT AVBL
KAMUELA*       NOT AVBL
HAKALAU*         N/A     54  53  95 NE7         N/A
KALOKO-HONOKO* NOT AVBL
PALI 2*          N/A     68  55  64 SW25G37     N/A
KEALAKOMO*       N/A     79  63  57 NE15G24     N/A
KAUPULEHU*       N/A     82  59  44 NE16G35     N/A
KAPAPALA*        N/A     72  64  75 E7G20       N/A
LOWER KAHUKU*    N/A     61  61 100 E3G12       N/A
PUHE CS*         N/A     86  66  51 SW3G10      N/A
PUHO CS*         N/A     83  66  55 SW3G9       N/A
PTA KEAMUKU*     N/A     72  55  56 CALM        N/A
WAIKOLOA*        N/A     82  59  44 NE16G30     N/A
$$

HIZ027>028-230200-
BIG ISLAND OF HAWAII INTERIOR AND SUMMMITS-

CITY           SKY/WX    TMP DP  RH WIND       PRES   REMARKS
BRADSHAW FIELD MOSUNNY   68  52  56 SE7G17    30.28F
MK VISITOR CEN   N/A     57  25  28 S14         N/A
MAUNA KEA*       N/A     46  -2  13 NE10        N/A
MAUNA LOA*       N/A    N/A N/A N/A MISG        N/A
MAUNA LOA 1*   NOT AVBL
PTA KIPUKA*    NOT AVBL
PTA RANGE 17*  NOT AVBL
PTA WEST*        N/A     72  54  53 NW12G22     N/A
NENE CABIN*      N/A     52  52 100 E6G13       N/A
AHUMOA*          N/A     66  53  63 N5G14       N/A
PTA PORTABLE*  NOT AVBL
PUU MALI*        N/A     54  52  94 E25G37      N/A
$$

HIC003-230200-
NORTHWEST ISLANDS-

CITY           SKY/WX    TMP DP  RH WIND       PRES   REMARKS
MIDWAY ISLAND  NOT AVBL
MIDWAY NOS*      N/A     72 N/A N/A MISG      30.28S
FRENCH FRIGATE NOT AVBL
$$

PHZ110>124-180-230200-
BUOY REPORTS

STATION/POSITION TIME  TEMP    WIND        PRES    WAVE   SWELL
                       AIR SEA DIR/SP/G            HT/PER HT/DIR
                 (UTC) (F)     (DEG/KT/KT) (MB)    (FT/S) (FT/D)
BUOY 51001       0120   75 77   40/ 21/ 27 1019.6
BUOY 51101       0050   75 77   40/ 23/ 27 1020.0F  10/ 7   3/310
BUOY 51100       NOT AVBL
BUOY 51002       0120   76 78   50/ 14/ 17 1013.5
BUOY 51003       0050   78 80   30/ 16/ 17 1014.7F   6/ 7   3/350
BUOY 51004       0050      78   60/ 16/ 19 1014.3F   6/15   3/280
BARBERS PT BUOY  NOT AVBL
WAIMEA BAY BUOY  0102      78                N/A     6/13   3/330
KAILUA BAY BUOY  0104      79                N/A     6/ 6   2/340
LANAI BUOY       NOT AVBL
BARBERS PT 2     NOT AVBL
PAUWELA MAUI     0109      78                N/A     6/12   3/330
HILO             0012      79                N/A     6/13   3/330
KANEOHE BAY BUOY 0055      79                N/A     6/ 6   2/350
HANALEI KAUAI    0122      79                N/A     7/11   3/320
KAHULUI HARBOR   0100   78 80   60/ 15/ 21 1016.6
HONOLULU HARBOR  0100   81 80   50/  7/ 14 1017.0
KILO NALU        NOT AVBL
HILO HARBOR      0100   74 77   20/ 11/ 19 1016.7
MOKUOLOE         0036   79 80   70/ 14/ 19 1017.4F
NAWILIWILI       0100   79      40/ 10/ 17 1017.6
WHOTS BUOY       NOT AVBL
BUOY 51028       NOT AVBL
$$

......................KEY........................................
  SKY/WX - SKY CONDITIONS/PRESENT WEATHER
  TMP    - TEMPERATURE IN FAHRENHEIT
  DWPT   - DEWPOINT IN FAHRENHEIT
  RH     - RELATIVE HUMIDITY IN PERCENT
  WIND   - DIRECTION AND SPEED /MPH FOR ISLANDS...KTS FOR BUOYS/
  PRES   - MEAN SEA LEVEL PRESSURE IN INCHES OF HG
  VSB    - VISIBILITY IN MILES
  HX     - HEAT INDEX
  WCI    - WIND CHILL INDEX
  VRB    - VARIABLE WIND DIRECTION
  N/A    - NOT AVAILABLE



USA.gov is the U.S. government's official web portal to all federal, state and local government web resources and services.